| time (UTC) | temp F | wind direction | speed knots | gust knots | rain 1hr in | rain 24hr in | rain mn in | humidity % | barometer mb |
| 20260506091553 | 75 | 207 | 0.9 | 7.8 | 0.00 | 0.00 | 0.00 | 89 | 1008.4 |
| 20260506090053 | 75 | 69 | 0.9 | 7.8 | 0.00 | 0.00 | 0.00 | 89 | 1008.2 |
| 20260506084601 | 75 | 143 | 1.7 | 3.5 | 0.00 | 0.00 | 0.00 | 89 | 1008.4 |
| 20260506083112 | 75 | 150 | 1.7 | 8.7 | 0.00 | 0.00 | 0.00 | 88 | 1008.3 |
| 20260506081553 | 75 | 122 | 1.7 | 5.2 | 0.00 | 0.00 | 0.00 | 88 | 1008.3 |
| 20260506073059 | 76 | 130 | 1.7 | 7.8 | 0.00 | 0.00 | 0.00 | 88 | 1008.7 |
| 20260506071557 | 76 | 141 | 1.7 | 5.2 | 0.00 | 0.00 | 0.00 | 88 | 1008.9 |
| 20260506070119 | 76 | 221 | 2.6 | 7.8 | 0.00 | 0.00 | 0.00 | 87 | 1008.9 |
| 20260506061553 | 76 | 202 | 1.7 | 8.7 | 0.00 | 0.00 | 0.00 | 87 | 1008.9 |
| 20260506044551 | 77 | 137 | 1.7 | 6.1 | 0.00 | 0.00 | 0.00 | 87 | 1009.0 |
| 20260506043051 | 77 | 146 | 1.7 | 7.0 | 0.00 | 0.00 | 0.00 | 86 | 1009.1 |
| 20260506041554 | 77 | 139 | 0.9 | 7.0 | 0.00 | 0.00 | 0.00 | 86 | 1009.0 |
| 20260506040056 | 77 | 158 | 1.7 | 4.3 | 0.00 | 0.00 | 0.00 | 86 | 1008.7 |
| 20260506034600 | 77 | 214 | 0.9 | 5.2 | 0.00 | 0.00 | 0.00 | 85 | 1008.6 |
| 20260506033052 | 78 | 161 | 1.7 | 7.0 | 0.00 | 0.00 | 0.00 | 84 | 1008.5 |
| 20260506031600 | 78 | 138 | 0.0 | 5.2 | 0.00 | 0.00 | 0.00 | 84 | 1008.2 |
| 20260506030058 | 78 | 0 | 0.0 | 3.5 | 0.00 | 0.00 | 0.00 | 83 | 1008.0 |
| 20260506024601 | 79 | 124 | 1.7 | 5.2 | 0.00 | 0.00 | 0.00 | 82 | 1007.9 |
| 20260506023052 | 79 | 133 | 1.7 | 6.1 | 0.00 | 0.00 | 0.00 | 81 | 1007.5 |
| 20260506021550 | 80 | 172 | 1.7 | 7.0 | 0.00 | 0.00 | 0.00 | 79 | 1007.2 |
| 20260506020107 | 80 | 141 | 1.7 | 4.3 | 0.00 | 0.00 | 0.00 | 78 | 1007.0 |
| 20260506014610 | 81 | 174 | 0.9 | 4.3 | 0.00 | 0.00 | 0.00 | 78 | 1006.8 |
| 20260506013052 | 81 | 103 | 1.7 | 4.3 | 0.00 | 0.00 | 0.00 | 77 | 1006.9 |
| 20260506011617 | 82 | 136 | 0.0 | 3.5 | 0.00 | 0.00 | 0.00 | 76 | 1006.9 |
| 20260506010053 | 82 | 155 | 0.0 | 1.7 | 0.00 | 0.00 | 0.00 | 75 | 1006.9 |
| 20260506004607 | 82 | 0 | 0.0 | 1.7 | 0.00 | 0.00 | 0.00 | 75 | 1006.8 |
| 20260506003055 | 83 | 118 | 0.0 | 3.5 | 0.00 | 0.00 | 0.00 | 74 | 1006.8 |
| 20260506001602 | 83 | 0 | 0.0 | 5.2 | 0.00 | 0.00 | 0.00 | 73 | 1006.7 |
| 20260506000120 | 83 | 205 | 1.7 | 4.3 | 0.00 | 0.00 | 0.00 | 72 | 1006.5 |
| 20260505234556 | 83 | 168 | 1.7 | 4.3 | 0.00 | 0.00 | 0.00 | 73 | 1006.4 |
| 20260505233059 | 84 | 184 | 1.7 | 8.7 | 0.00 | 0.00 | 0.00 | 72 | 1006.3 |
| 20260505231612 | 84 | 106 | 2.6 | 7.0 | 0.00 | 0.00 | 0.00 | 71 | 1006.2 |
| 20260505230105 | 84 | 194 | 1.7 | 6.1 | 0.00 | 0.00 | 0.00 | 71 | 1006.0 |
| 20260505224557 | 84 | 58 | 1.7 | 5.2 | 0.00 | 0.00 | 0.00 | 70 | 1006.0 |
| 20260505223049 | 84 | 215 | 2.6 | 8.7 | 0.00 | 0.00 | 0.00 | 69 | 1005.9 |
| 20260505221559 | 85 | 167 | 1.7 | 7.8 | 0.00 | 0.00 | 0.00 | 69 | 1006.0 |
| 20260505220053 | 85 | 181 | 2.6 | 9.6 | 0.00 | 0.00 | 0.00 | 69 | 1006.1 |
| 20260505214554 | 85 | 179 | 4.3 | 10.4 | 0.00 | 0.00 | 0.00 | 68 | 1006.5 |
| 20260505213056 | 84 | 167 | 3.5 | 10.4 | 0.00 | 0.00 | 0.00 | 68 | 1006.5 |
| 20260505211557 | 85 | 193 | 3.5 | 10.4 | 0.00 | 0.00 | 0.00 | 68 | 1006.5 |
| 20260505210055 | 84 | 186 | 3.5 | 10.4 | 0.00 | 0.00 | 0.00 | 70 | 1006.7 |
| 20260505204600 | 84 | 184 | 1.7 | 9.6 | 0.00 | 0.00 | 0.00 | 70 | 1007.0 |
| 20260505203059 | 83 | 181 | 2.6 | 7.8 | 0.00 | 0.00 | 0.00 | 72 | 1007.5 |
| 20260505201555 | 82 | 178 | 4.3 | 7.0 | 0.00 | 0.00 | 0.00 | 73 | 1007.6 |
| 20260505200052 | 82 | 149 | 1.7 | 7.0 | 0.00 | 0.00 | 0.00 | 73 | 1007.8 |
| 20260505194617 | 82 | 122 | 2.6 | 7.0 | 0.00 | 0.00 | 0.00 | 73 | 1008.1 |
| 20260505193052 | 81 | 52 | 2.6 | 7.8 | 0.00 | 0.00 | 0.00 | 74 | 1008.2 |
| 20260505191606 | 81 | 178 | 4.3 | 8.7 | 0.00 | 0.00 | 0.00 | 74 | 1008.2 |
| 20260505190055 | 81 | 167 | 1.7 | 7.8 | 0.00 | 0.00 | 0.00 | 75 | 1008.4 |
| 20260505184554 | 79 | 200 | 4.3 | 8.7 | 0.00 | 0.00 | 0.00 | 77 | 1008.5 |
| 20260505183056 | 79 | 204 | 2.6 | 7.8 | 0.00 | 0.00 | 0.00 | 78 | 1008.8 |
| 20260505181555 | 78 | 152 | 2.6 | 9.6 | 0.00 | 0.00 | 0.00 | 79 | 1008.9 |
| 20260505174556 | 76 | 201 | 2.6 | 8.7 | 0.00 | 0.00 | 0.00 | 81 | 1009.3 |
| 20260505173112 | 76 | 167 | 3.5 | 9.6 | 0.00 | 0.00 | 0.00 | 82 | 1009.4 |
| 20260505171618 | 75 | 221 | 3.5 | 7.8 | 0.00 | 0.00 | 0.00 | 82 | 1009.4 |
| 20260505170053 | 75 | 176 | 2.6 | 7.8 | 0.00 | 0.00 | 0.00 | 83 | 1009.5 |
| 20260505164604 | 74 | 167 | 4.3 | 10.4 | 0.00 | 0.00 | 0.00 | 84 | 1009.3 |
| 20260505163049 | 74 | 151 | 3.5 | 8.7 | 0.00 | 0.00 | 0.00 | 85 | 1009.4 |
| 20260505161556 | 73 | 181 | 2.6 | 7.0 | 0.00 | 0.00 | 0.00 | 85 | 1009.4 |
| 20260505153054 | 72 | 175 | 2.6 | 7.0 | 0.00 | 0.00 | 0.00 | 87 | 1009.7 |
| 20260505151558 | 72 | 177 | 2.6 | 7.8 | 0.00 | 0.00 | 0.00 | 87 | 1009.5 |
| 20260505150110 | 72 | 187 | 4.3 | 9.6 | 0.00 | 0.00 | 0.00 | 88 | 1009.3 |
| 20260505124557 | 71 | 191 | 3.5 | 8.7 | 0.00 | 0.00 | 0.00 | 88 | 1008.2 |
| 20260505123100 | 71 | 195 | 4.3 | 9.6 | 0.00 | 0.00 | 0.00 | 88 | 1008.1 |
| 20260505121624 | 71 | 212 | 3.5 | 11.3 | 0.00 | 0.00 | 0.00 | 88 | 1007.9 |
| 20260505120057 | 71 | 180 | 6.1 | 10.4 | 0.00 | 0.00 | 0.00 | 88 | 1007.8 |
| 20260505114554 | 71 | 166 | 3.5 | 9.6 | 0.00 | 0.00 | 0.00 | 88 | 1007.8 |
| 20260505113057 | 71 | 168 | 3.5 | 10.4 | 0.00 | 0.00 | 0.00 | 87 | 1007.9 |
| 20260505111555 | 71 | 193 | 6.1 | 12.2 | 0.00 | 0.00 | 0.00 | 87 | 1007.8 |
| 20260505101558 | 70 | 205 | 3.5 | 9.6 | 0.00 | 0.00 | 0.00 | 87 | 1008.1 |
| 20260505100135 | 70 | 198 | 4.3 | 13.0 | 0.00 | 0.00 | 0.00 | 86 | 1008.2 |
| 20260505094558 | 71 | 169 | 4.3 | 11.3 | 0.00 | 0.00 | 0.00 | 86 | 1008.1 |
| 20260505093053 | 71 | 195 | 5.2 | 13.0 | 0.00 | 0.00 | 0.00 | 86 | 1008.2 |